Powrót do katalogu

OSCAR 30 DEB

AktywnyPO
NORAD 21878·DEBRIS·🇺🇸 United States

Wystrzelony Aug 3, 1985 z Vandenberg Space Force Base

Loading…

Następne Przeloty (najbliższe 24 godziny)

TLE

ŚwieżeSource: Space-Track

Epoka: Sep 14, 2026, 22:35 UTC

1 21878U 85066H   26257.94133664  .00000721  00000-0  10184-2 0  9995
2 21878  90.1687  71.5971 0144408 273.3268 253.5993 13.52055622 10885

Śledź OSCAR 30 DEB w czasie rzeczywistym z AllMySat

Download on the App Store